User: anonymous   Login
Location: Newark
(48.1500°N, 2.9667°W)
Time: 18:56:15
(UTC+00:00)
Language:

Explorer 7 - Orbit

View from above orbital plane
View from above orbital plane
View from above satellite
View from above satellite

Ground track
Ground track

The orbit data is extracted from the following two-line orbital elements,

1    22U 59009A   20027.20303517 -.00000082 +00000-0 +17510-4 0  9998
2    22 050.2844 049.4562 0139645 075.2770 286.3606 14.95026798449093
Epoch (UTC): 27 January 2020 04:52:22
Eccentricity: 0.0139645
inclination: 50.2844°
perigee height: 485 km
apogee height: 679 km
right ascension of ascending node: 49.4562°
argument of perigee: 75.2770°
revolutions per day: 14.95026798
mean anomaly at epoch: 286.3606°
orbit number at epoch: 44909

The dashed part of the orbit path shows where the satellite is in the earth's shadow,  

DLR